RYR8KM EGGW-LEMI

Flight info

Callsign RYR8KM
Flight time N/A
Altitude 37000
Route RODNI N27 ICTAM Q63 CPT N859 VAPID UN859 BENAR/N0431F330 UN859 SOPIL DCT BALAN DCT LMG/N0438F350 DCT PIMQO DCT AGN DCT ANETO DCT POSSY DCT XIMPE DCT RIMES N860 VLC L34 ALT
Aircraft B738/M-SDE3FGILRWY/SB1

Departure

Time N/A
Airport London Luton Airport (EGGW)

Arrival

Time 2026-04-15 14:21
Airport Region of Murcia International Airport (LEMI)
Time Latitude Longitude Altitude Speed Heading
2026-04-15 13:31 42.53437 0.45666 37181 ft 445 kts 210°
2026-04-15 13:32 42.47833 0.42080 37200 ft 446 kts 210°
2026-04-15 13:32 42.42215 0.38508 37183 ft 447 kts 210°
2026-04-15 13:33 42.36593 0.34941 37189 ft 446 kts 210°
2026-04-15 13:33 42.30969 0.31380 37177 ft 446 kts 210°
2026-04-15 13:34 42.25324 0.27898 37170 ft 448 kts 205°
2026-04-15 13:34 42.19192 0.25996 37178 ft 454 kts 194°
2026-04-15 13:35 42.12974 0.24505 37170 ft 453 kts 194°
2026-04-15 13:35 42.06787 0.22984 37172 ft 451 kts 195°
2026-04-15 13:36 42.00616 0.21422 37164 ft 451 kts 195°
2026-04-15 13:36 41.94471 0.19852 37160 ft 449 kts 195°
2026-04-15 13:37 41.88339 0.18281 37169 ft 448 kts 195°
2026-04-15 13:37 41.82211 0.16716 37159 ft 448 kts 195°
2026-04-15 13:38 41.76083 0.15155 37171 ft 449 kts 195°
2026-04-15 13:38 41.69944 0.13595 37172 ft 450 kts 195°
2026-04-15 13:39 41.63787 0.12035 37159 ft 451 kts 195°
2026-04-15 13:39 41.57619 0.10474 37160 ft 451 kts 195°
2026-04-15 13:40 41.51446 0.08915 37158 ft 452 kts 195°
2026-04-15 13:40 41.45258 0.07359 37167 ft 453 kts 195°
2026-04-15 13:41 41.39101 0.05810 37169 ft 454 kts 195°
2026-04-15 13:41 41.32882 0.04248 37164 ft 456 kts 195°
2026-04-15 13:42 41.26650 0.02686 37162 ft 456 kts 195°
2026-04-15 13:42 41.20402 0.01124 37170 ft 458 kts 195°
2026-04-15 13:43 41.14136 -0.00438 37161 ft 459 kts 195°
2026-04-15 13:43 41.07929 -0.02090 37172 ft 445 kts 197°
2026-04-15 13:44 41.01945 -0.03507 37164 ft 433 kts 195°
2026-04-15 13:44 40.95987 -0.04946 37182 ft 439 kts 196°
2026-04-15 13:45 40.90965 -0.06190 37180 ft 444 kts 195°
2026-04-15 13:47 40.66626 -0.12195 37178 ft 445 kts 195°
2026-04-15 13:47 40.60503 -0.13696 37168 ft 444 kts 195°
2026-04-15 13:48 40.54443 -0.15180 37176 ft 442 kts 195°
2026-04-15 13:48 40.48403 -0.16657 37169 ft 441 kts 195°
2026-04-15 13:49 40.42421 -0.18118 37177 ft 439 kts 195°
2026-04-15 13:49 40.36379 -0.19590 37185 ft 439 kts 195°
2026-04-15 13:50 40.30380 -0.21049 36788 ft 434 kts 195°
2026-04-15 13:50 40.27435 -0.21761 36465 ft 428 kts 195°
2026-04-15 13:50 40.24517 -0.22468 36098 ft 424 kts 195°
2026-04-15 13:51 40.21627 -0.23169 35734 ft 421 kts 195°
2026-04-15 13:51 40.18755 -0.23865 35362 ft 418 kts 195°
2026-04-15 13:51 40.15903 -0.24557 35001 ft 415 kts 195°
2026-04-15 13:51 40.13071 -0.25242 34632 ft 413 kts 195°
2026-04-15 13:52 40.10250 -0.25924 34263 ft 411 kts 195°
2026-04-15 13:52 40.07448 -0.26603 33903 ft 408 kts 195°
2026-04-15 13:52 40.04658 -0.27276 33542 ft 406 kts 195°
2026-04-15 13:52 40.01886 -0.27944 33181 ft 404 kts 195°
2026-04-15 13:53 39.99180 -0.28660 32835 ft 399 kts 200°
2026-04-15 13:53 39.96495 -0.29674 32516 ft 395 kts 201°
2026-04-15 13:53 39.93893 -0.30774 32157 ft 392 kts 203°
2026-04-15 13:53 39.91294 -0.31833 31808 ft 391 kts 201°
2026-04-15 13:54 39.88677 -0.32795 31452 ft 390 kts 200°
2026-04-15 13:54 39.86072 -0.33751 31100 ft 388 kts 201°
2026-04-15 13:54 39.83492 -0.34745 30767 ft 386 kts 202°
2026-04-15 13:54 39.80926 -0.35750 30415 ft 385 kts 202°
2026-04-15 13:55 39.78403 -0.36742 30078 ft 383 kts 202°
2026-04-15 13:55 39.75824 -0.37752 29734 ft 381 kts 202°
2026-04-15 13:55 39.73325 -0.38726 29391 ft 379 kts 202°
2026-04-15 13:55 39.70772 -0.39720 29031 ft 377 kts 201°
2026-04-15 13:56 39.68266 -0.40694 28688 ft 375 kts 201°
2026-04-15 13:56 39.65767 -0.41664 28340 ft 374 kts 201°
2026-04-15 13:56 39.63279 -0.42627 27992 ft 372 kts 201°
2026-04-15 13:56 39.60806 -0.43585 27654 ft 370 kts 201°
2026-04-15 13:57 39.58379 -0.44524 27329 ft 368 kts 201°
2026-04-15 13:57 39.55902 -0.45481 26978 ft 366 kts 201°
2026-04-15 13:57 39.53468 -0.46421 26646 ft 364 kts 201°
2026-04-15 13:57 39.51048 -0.47353 26314 ft 362 kts 201°
2026-04-15 13:58 39.48621 -0.48227 25975 ft 362 kts 195°
2026-04-15 13:58 39.46146 -0.48598 25661 ft 363 kts 187°
2026-04-15 13:58 39.43625 -0.48778 25335 ft 362 kts 186°
2026-04-15 13:58 39.41107 -0.48932 25005 ft 363 kts 186°
2026-04-15 13:59 39.38585 -0.49085 24680 ft 363 kts 186°
2026-04-15 13:59 39.36045 -0.49247 24366 ft 369 kts 186°
2026-04-15 13:59 39.33457 -0.49420 24027 ft 375 kts 186°
2026-04-15 13:59 39.30853 -0.49599 23672 ft 374 kts 186°
2026-04-15 14:00 39.28257 -0.49780 23323 ft 372 kts 186°
2026-04-15 14:00 39.25679 -0.49962 22985 ft 370 kts 186°
2026-04-15 14:00 39.23115 -0.50144 22648 ft 368 kts 186°
2026-04-15 14:00 39.20564 -0.50327 22312 ft 366 kts 186°
2026-04-15 14:01 39.15502 -0.50691 21644 ft 362 kts 186°
2026-04-15 14:01 39.12990 -0.50871 21314 ft 361 kts 186°
2026-04-15 14:01 39.10492 -0.51051 20982 ft 359 kts 186°
2026-04-15 14:02 39.08000 -0.51231 20656 ft 358 kts 186°
2026-04-15 14:02 39.05521 -0.51410 20326 ft 356 kts 185°
2026-04-15 14:02 39.03052 -0.51587 20000 ft 355 kts 185°
2026-04-15 14:02 39.00593 -0.51763 19673 ft 353 kts 185°
2026-04-15 14:03 38.98147 -0.51938 19357 ft 352 kts 185°
2026-04-15 14:03 38.95708 -0.52113 19022 ft 350 kts 185°
2026-04-15 14:03 38.93280 -0.52286 18691 ft 349 kts 185°
2026-04-15 14:03 38.90862 -0.52459 18381 ft 347 kts 185°
2026-04-15 14:04 38.88457 -0.52631 18061 ft 345 kts 185°
2026-04-15 14:04 38.86062 -0.52802 17742 ft 344 kts 185°
2026-04-15 14:04 38.83678 -0.52972 17427 ft 343 kts 185°
2026-04-15 14:04 38.81301 -0.53142 17108 ft 341 kts 185°
2026-04-15 14:05 38.78937 -0.53311 16802 ft 339 kts 185°
2026-04-15 14:05 38.76583 -0.53479 16466 ft 339 kts 185°
2026-04-15 14:05 38.74234 -0.53646 16141 ft 337 kts 185°
2026-04-15 14:05 38.71893 -0.53813 15829 ft 336 kts 185°
2026-04-15 14:06 38.69565 -0.54063 15282 ft 340 kts 190°
2026-04-15 14:06 38.67236 -0.54606 14865 ft 341 kts 193°
2026-04-15 14:06 38.64918 -0.55234 14500 ft 340 kts 194°
2026-04-15 14:06 38.62608 -0.55870 14174 ft 338 kts 194°
2026-04-15 14:07 38.60311 -0.56490 13863 ft 336 kts 193°
2026-04-15 14:07 38.58022 -0.57093 13531 ft 335 kts 193°
2026-04-15 14:07 38.55741 -0.57682 13214 ft 334 kts 193°
2026-04-15 14:07 38.53471 -0.58260 12891 ft 332 kts 192°
2026-04-15 14:08 38.51214 -0.58830 12586 ft 329 kts 192°
2026-04-15 14:08 38.48971 -0.59393 12243 ft 328 kts 192°
2026-04-15 14:08 38.46734 -0.59954 11929 ft 326 kts 192°
2026-04-15 14:08 38.44516 -0.60510 11612 ft 324 kts 193°
2026-04-15 14:09 38.42318 -0.61101 11317 ft 322 kts 192°
2026-04-15 14:09 38.40130 -0.61648 10981 ft 320 kts 192°
2026-04-15 14:09 38.37981 -0.62178 10674 ft 317 kts 192°
2026-04-15 14:09 38.35821 -0.62701 10381 ft 315 kts 192°
2026-04-15 14:10 38.33695 -0.63217 10237 ft 307 kts 192°
2026-04-15 14:10 38.31613 -0.63731 9955 ft 305 kts 193°
2026-04-15 14:10 38.29540 -0.64246 9675 ft 303 kts 193°
2026-04-15 14:10 38.27480 -0.64758 9395 ft 301 kts 193°
2026-04-15 14:11 38.25436 -0.65267 9119 ft 298 kts 193°
2026-04-15 14:11 38.23406 -0.65771 8816 ft 297 kts 193°
2026-04-15 14:11 38.21385 -0.66287 8526 ft 295 kts 195°
2026-04-15 14:11 38.19415 -0.66974 8252 ft 292 kts 199°
2026-04-15 14:12 38.17471 -0.67713 7974 ft 291 kts 199°
2026-04-15 14:12 38.15536 -0.68449 7684 ft 290 kts 200°
2026-04-15 14:12 38.13800 -0.69656 7379 ft 284 kts 225°
2026-04-15 14:12 38.12426 -0.71421 7127 ft 280 kts 228°
2026-04-15 14:13 38.11065 -0.73184 6841 ft 279 kts 227°
2026-04-15 14:13 38.09698 -0.74936 6560 ft 278 kts 228°
2026-04-15 14:13 38.08310 -0.76661 6235 ft 283 kts 225°
2026-04-15 14:13 38.06895 -0.78374 5841 ft 277 kts 226°
2026-04-15 14:14 38.05544 -0.80056 5541 ft 269 kts 227°
2026-04-15 14:14 38.04248 -0.81711 5257 ft 261 kts 227°
2026-04-15 14:14 38.02991 -0.83326 4987 ft 253 kts 227°
2026-04-15 14:14 38.01772 -0.84892 4762 ft 244 kts 227°
2026-04-15 14:15 38.00623 -0.86365 4649 ft 227 kts 227°
2026-04-15 14:15 37.99543 -0.87754 4568 ft 219 kts 227°
2026-04-15 14:15 37.98484 -0.89124 4462 ft 215 kts 227°
2026-04-15 14:15 37.97431 -0.90473 4360 ft 215 kts 226°
2026-04-15 14:16 37.96374 -0.91817 4272 ft 215 kts 227°
2026-04-15 14:16 37.95323 -0.93167 4170 ft 216 kts 227°
2026-04-15 14:16 37.94274 -0.94556 3947 ft 221 kts 230°
2026-04-15 14:16 37.93189 -0.95937 3714 ft 219 kts 226°
2026-04-15 14:17 37.92133 -0.97276 3498 ft 210 kts 226°
2026-04-15 14:17 37.91141 -0.98538 3373 ft 197 kts 226°
2026-04-15 14:17 37.90188 -0.99763 3107 ft 192 kts 226°
2026-04-15 14:17 37.89268 -1.00950 2862 ft 186 kts 226°
2026-04-15 14:18 37.88376 -1.02095 2632 ft 179 kts 226°
2026-04-15 14:18 37.87521 -1.03196 2392 ft 174 kts 225°
2026-04-15 14:18 37.86696 -1.04258 2157 ft 164 kts 224°
2026-04-15 14:18 37.85928 -1.05304 1979 ft 163 kts 224°
2026-04-15 14:19 37.85129 -1.06304 1762 ft 159 kts 221°
2026-04-15 14:19 37.84349 -1.07274 1527 ft 155 kts 221°
2026-04-15 14:19 37.83599 -1.08238 1330 ft 154 kts 221°
2026-04-15 14:19 37.82847 -1.09210 1113 ft 154 kts 222°
2026-04-15 14:20 37.82105 -1.10167 926 ft 152 kts 221°
2026-04-15 14:20 37.81370 -1.11110 729 ft 150 kts 222°
2026-04-15 14:20 37.80658 -1.12018 643 ft 134 kts 224°
2026-04-15 14:20 37.80135 -1.12697 643 ft 73 kts 227°
2026-04-15 14:21 37.79923 -1.13047 645 ft 28 kts 249°
2026-04-15 14:21 37.79900 -1.13229 652 ft 16 kts 306°
2026-04-15 14:21 37.80003 -1.13182 647 ft 21 kts 45°
2026-04-15 14:21 37.80119 -1.13092 646 ft 21 kts 338°
2026-04-15 14:22 37.80202 -1.13161 647 ft 12 kts
2026-04-15 14:22 37.80267 -1.13093 648 ft 12 kts 45°
2026-04-15 14:22 37.80316 -1.13029 646 ft 1 kts 45°
2026-04-15 14:22 37.80330 -1.13021 646 ft 5 kts
2026-04-15 14:23 37.80362 -1.13046 646 ft 6 kts 316°
2026-04-15 14:23 37.80386 -1.13076 646 ft 2 kts 315°
2026-04-15 14:23 37.80389 -1.13079 646 ft 0 kts 315°